Terminal Aerodrome Forecast
Issued by NWS

Home | Current Version | Previous Version | Text Only | Print | Product List | Glossary On
Versions: 1 2 3 4 5 6 7 8 9 10 11 12 13 14 15 16 17 18 19 20 21 22 23 24 25 26 27 28 29 30 31 32 33 34
000
FTPA31 PHFO 211500 AAD
TAFMDY
TAF AMD
PMDY 211541Z 2115/2212 08011G17KT P6SM SCT020 BKN040
     FM212000 08014G24KT P6SM FEW025 SCT050
      AMD LTD TO CLD AND WIND=

USA.gov is the U.S. government's official web portal to all federal, state and local government web resources and services.